Time,TemperatureF,DewpointF,PressureIn,WindDirection,WindDirectionDegrees,WindSpeedMPH,WindSpeedGustMPH,Humidity,HourlyPrecipIn,Conditions,Clouds,dailyrainin,SoftwareType,DateUTC
2013-05-28 00:03:00,57.0,38.0,30.14,SSE,157,1.0,2.0,48,0.00,,,0.00,,2013-05-28 04:03:00,
2013-05-28 00:13:00,57.0,38.0,30.14,SSE,157,1.0,2.0,48,0.00,,,0.00,,2013-05-28 04:13:00,
2013-05-28 00:22:00,55.0,37.0,30.15,SSE,158,0.0,1.0,51,0.00,,,0.00,,2013-05-28 04:22:00,
2013-05-28 00:33:00,54.0,39.0,30.15,South,178,1.0,3.0,56,0.00,,,0.00,,2013-05-28 04:33:00,
2013-05-28 00:43:00,54.0,39.0,30.15,South,178,1.0,3.0,56,0.00,,,0.00,,2013-05-28 04:43:00,
2013-05-28 00:53:00,54.0,40.0,30.15,SSE,167,0.0,1.0,58,0.00,,,0.00,,2013-05-28 04:53:00,
2013-05-28 01:02:00,53.0,40.0,30.15,South,190,0.0,0.0,61,0.00,,,0.00,,2013-05-28 05:02:00,
2013-05-28 01:12:00,53.0,40.0,30.15,South,190,0.0,0.0,61,0.00,,,0.00,,2013-05-28 05:12:00,
2013-05-28 01:22:00,52.0,41.0,30.15,SSE,166,0.0,1.0,65,0.00,,,0.00,,2013-05-28 05:22:00,
2013-05-28 01:33:00,52.0,40.0,30.15,SSE,166,0.0,0.0,64,0.00,,,0.00,,2013-05-28 05:33:00,
2013-05-28 01:42:00,52.0,40.0,30.15,SSE,166,0.0,0.0,64,0.00,,,0.00,,2013-05-28 05:42:00,
2013-05-28 01:52:00,52.0,41.0,30.15,SSE,166,0.0,0.0,65,0.00,,,0.00,,2013-05-28 05:52:00,
2013-05-28 02:02:00,52.0,40.0,30.15,SSE,166,0.0,0.0,64,0.00,,,0.00,,2013-05-28 06:02:00,
2013-05-28 02:12:00,52.0,40.0,30.15,SSE,166,0.0,0.0,64,0.00,,,0.00,,2013-05-28 06:12:00,
2013-05-28 02:22:00,52.0,41.0,30.14,SSE,160,0.0,1.0,65,0.00,,,0.00,,2013-05-28 06:22:00,
2013-05-28 02:32:00,52.0,42.0,30.14,SW,228,0.0,0.0,68,0.00,,,0.00,,2013-05-28 06:32:00,
2013-05-28 02:42:00,52.0,42.0,30.14,SW,228,0.0,0.0,68,0.00,,,0.00,,2013-05-28 06:42:00,
2013-05-28 02:52:00,51.0,41.0,30.13,SSE,153,0.0,0.0,68,0.00,,,0.00,,2013-05-28 06:52:00,
2013-05-28 03:02:00,51.0,41.0,30.13,SSE,153,0.0,1.0,69,0.00,,,0.00,,2013-05-28 07:02:00,
2013-05-28 03:11:00,51.0,41.0,30.13,SSE,153,0.0,1.0,69,0.00,,,0.00,,2013-05-28 07:11:00,
2013-05-28 03:22:00,50.0,42.0,30.13,SSE,160,0.0,0.0,73,0.00,,,0.00,,2013-05-28 07:22:00,
2013-05-28 03:32:00,50.0,41.0,30.12,SSE,166,2.0,2.0,72,0.00,,,0.00,,2013-05-28 07:32:00,
2013-05-28 03:42:00,50.0,41.0,30.12,SSE,166,2.0,2.0,72,0.00,,,0.00,,2013-05-28 07:42:00,
2013-05-28 03:52:00,51.0,41.0,30.11,SSE,162,2.0,3.0,69,0.00,,,0.00,,2013-05-28 07:52:00,
2013-05-28 04:02:00,51.0,42.0,30.11,South,173,0.0,2.0,71,0.00,,,0.00,,2013-05-28 08:02:00,
2013-05-28 04:12:00,51.0,42.0,30.11,South,173,0.0,2.0,71,0.00,,,0.00,,2013-05-28 08:12:00,
2013-05-28 04:22:00,50.0,41.0,30.11,SSE,164,1.0,2.0,71,0.00,,,0.00,,2013-05-28 08:22:00,
2013-05-28 04:32:00,50.0,41.0,30.11,SSE,165,2.0,3.0,71,0.00,,,0.00,,2013-05-28 08:32:00,
2013-05-28 04:42:00,50.0,41.0,30.11,SSE,165,2.0,3.0,71,0.00,,,0.00,,2013-05-28 08:42:00,
2013-05-28 04:52:00,51.0,42.0,30.11,SSE,164,2.0,4.0,71,0.00,,,0.00,,2013-05-28 08:52:00,
2013-05-28 05:01:00,51.0,42.0,30.11,SSE,166,2.0,5.0,71,0.00,,,0.00,,2013-05-28 09:01:00,
2013-05-28 05:11:00,51.0,42.0,30.11,SSE,166,2.0,5.0,71,0.00,,,0.00,,2013-05-28 09:11:00,
2013-05-28 05:21:00,51.0,42.0,30.11,South,169,3.0,5.0,72,0.00,,,0.00,,2013-05-28 09:21:00,
2013-05-28 05:33:00,51.0,43.0,30.11,South,172,2.0,5.0,74,0.00,,,0.00,,2013-05-28 09:33:00,
2013-05-28 05:43:00,51.0,43.0,30.11,South,172,2.0,5.0,74,0.00,,,0.00,,2013-05-28 09:43:00,
2013-05-28 05:54:00,51.0,43.0,30.11,South,174,2.0,4.0,75,0.00,,,0.00,,2013-05-28 09:54:00,
2013-05-28 06:03:00,50.0,43.0,30.11,South,172,1.0,3.0,77,0.00,,,0.00,,2013-05-28 10:03:00,
2013-05-28 06:12:00,50.0,43.0,30.11,South,172,1.0,3.0,77,0.00,,,0.00,,2013-05-28 10:12:00,
2013-05-28 06:23:00,48.0,43.0,30.10,South,171,2.0,3.0,82,0.01,,,0.01,,2013-05-28 10:23:00,
2013-05-28 06:32:00,48.0,44.0,30.10,South,173,3.0,4.0,85,0.01,,,0.01,,2013-05-28 10:32:00,
2013-05-28 06:43:00,48.0,44.0,30.10,South,173,3.0,4.0,85,0.01,,,0.01,,2013-05-28 10:43:00,
2013-05-28 06:53:00,48.0,44.0,30.10,South,170,2.0,5.0,85,0.01,,,0.01,,2013-05-28 10:53:00,
2013-05-28 07:02:00,48.0,44.0,30.10,South,176,2.0,4.0,86,0.01,,,0.01,,2013-05-28 11:02:00,
2013-05-28 07:11:00,48.0,44.0,30.10,South,176,2.0,4.0,86,0.01,,,0.01,,2013-05-28 11:11:00,
2013-05-28 07:22:00,48.0,45.0,30.10,SSE,160,1.0,5.0,88,0.01,,,0.02,,2013-05-28 11:22:00,
2013-05-28 07:32:00,48.0,45.0,30.10,SSE,165,4.0,6.0,89,0.02,,,0.03,,2013-05-28 11:32:00,
2013-05-28 07:42:00,48.0,45.0,30.10,SSE,165,4.0,6.0,89,0.02,,,0.03,,2013-05-28 11:42:00,
2013-05-28 07:52:00,48.0,45.0,30.11,South,182,4.0,5.0,90,0.04,,,0.05,,2013-05-28 11:52:00,
2013-05-28 08:02:00,47.0,45.0,30.10,South,181,3.0,5.0,93,0.07,,,0.08,,2013-05-28 12:02:00,
2013-05-28 08:11:00,47.0,45.0,30.10,South,181,3.0,5.0,93,0.07,,,0.08,,2013-05-28 12:11:00,
2013-05-28 08:22:00,48.0,46.0,30.10,SSE,164,3.0,5.0,92,0.09,,,0.11,,2013-05-28 12:22:00,
2013-05-28 08:32:00,48.0,47.0,30.10,South,186,0.0,7.0,95,0.13,,,0.16,,2013-05-28 12:32:00,
2013-05-28 08:42:00,48.0,47.0,30.10,South,186,0.0,7.0,95,0.13,,,0.16,,2013-05-28 12:42:00,
2013-05-28 08:52:00,48.0,47.0,30.11,South,175,1.0,5.0,95,0.17,,,0.22,,2013-05-28 12:52:00,
2013-05-28 09:01:00,48.0,47.0,30.10,SSE,158,2.0,5.0,96,0.16,,,0.24,,2013-05-28 13:01:00,
2013-05-28 09:11:00,48.0,47.0,30.10,SSE,158,2.0,5.0,96,0.16,,,0.24,,2013-05-28 13:11:00,
2013-05-28 09:22:00,48.0,47.0,30.09,SSE,148,1.0,5.0,96,0.15,,,0.26,,2013-05-28 13:22:00,
2013-05-28 09:32:00,48.0,47.0,30.09,SSE,161,2.0,7.0,96,0.15,,,0.31,,2013-05-28 13:32:00,
2013-05-28 09:42:00,48.0,47.0,30.09,SSE,161,2.0,7.0,96,0.15,,,0.31,,2013-05-28 13:42:00,
2013-05-28 09:52:00,48.0,47.0,30.07,South,186,6.0,11.0,97,0.13,,,0.35,,2013-05-28 13:52:00,
2013-05-28 10:02:00,49.0,48.0,30.08,SSE,167,4.0,8.0,97,0.17,,,0.41,,2013-05-28 14:02:00,
2013-05-28 10:12:00,49.0,48.0,30.08,SSE,167,4.0,8.0,97,0.17,,,0.41,,2013-05-28 14:12:00,
2013-05-28 10:21:00,49.0,48.0,30.08,South,170,3.0,5.0,96,0.18,,,0.45,,2013-05-28 14:21:00,
2013-05-28 10:32:00,49.0,48.0,30.06,South,188,4.0,8.0,97,0.19,,,0.50,,2013-05-28 14:32:00,
2013-05-28 10:42:00,49.0,48.0,30.06,South,188,4.0,8.0,97,0.19,,,0.50,,2013-05-28 14:42:00,
2013-05-28 10:52:00,49.0,48.0,30.06,SE,131,3.0,12.0,97,0.18,,,0.53,,2013-05-28 14:52:00,
2013-05-28 11:01:00,49.0,48.0,30.06,SE,131,3.0,12.0,97,0.18,,,0.53,,2013-05-28 15:01:00,
2013-05-28 11:11:00,49.0,48.0,30.06,SE,131,3.0,12.0,97,0.18,,,0.53,,2013-05-28 15:11:00,
2013-05-28 11:21:00,49.0,48.0,30.09,South,181,2.0,7.0,97,0.10,,,0.55,,2013-05-28 15:21:00,
2013-05-28 11:33:00,50.0,49.0,30.08,SSE,165,1.0,4.0,97,0.06,,,0.56,,2013-05-28 15:33:00,
2013-05-28 11:43:00,50.0,49.0,30.08,SSE,165,1.0,4.0,97,0.06,,,0.56,,2013-05-28 15:43:00,
2013-05-28 11:53:00,50.0,49.0,30.07,SSE,158,2.0,7.0,98,0.05,,,0.57,,2013-05-28 15:53:00,
2013-05-28 12:03:00,50.0,49.0,30.07,South,181,4.0,6.0,98,0.04,,,0.59,,2013-05-28 16:03:00,
2013-05-28 12:13:00,50.0,49.0,30.07,South,181,4.0,6.0,98,0.04,,,0.59,,2013-05-28 16:13:00,
2013-05-28 12:23:00,51.0,50.0,30.07,SSE,163,2.0,6.0,98,0.04,,,0.59,,2013-05-28 16:23:00,
2013-05-28 12:33:00,51.0,50.0,30.06,South,176,3.0,5.0,97,0.04,,,0.60,,2013-05-28 16:33:00,
2013-05-28 12:42:00,51.0,50.0,30.06,South,176,3.0,5.0,97,0.04,,,0.60,,2013-05-28 16:42:00,
2013-05-28 12:53:00,52.0,51.0,30.07,South,185,3.0,7.0,98,0.02,,,0.60,,2013-05-28 16:53:00,
2013-05-28 13:02:00,52.0,51.0,30.07,SE,133,2.0,5.0,97,0.01,,,0.60,,2013-05-28 17:02:00,
2013-05-28 13:12:00,52.0,51.0,30.07,SE,133,2.0,5.0,97,0.01,,,0.60,,2013-05-28 17:12:00,
2013-05-28 13:22:00,52.0,51.0,30.07,SE,133,2.0,5.0,97,0.01,,,0.60,,2013-05-28 17:22:00,
2013-05-28 13:32:00,52.0,51.0,30.07,South,176,2.0,4.0,98,0.03,,,0.63,,2013-05-28 17:32:00,
2013-05-28 13:42:00,52.0,51.0,30.07,South,176,2.0,4.0,98,0.03,,,0.63,,2013-05-28 17:42:00,
2013-05-28 13:52:00,52.0,51.0,30.07,South,176,2.0,4.0,98,0.03,,,0.63,,2013-05-28 17:52:00,
2013-05-28 14:01:00,53.0,52.0,30.07,South,184,1.0,4.0,98,0.03,,,0.63,,2013-05-28 18:01:00,
2013-05-28 14:11:00,53.0,52.0,30.07,South,184,1.0,4.0,98,0.03,,,0.63,,2013-05-28 18:11:00,
2013-05-28 14:22:00,53.0,52.0,30.06,South,178,2.0,4.0,97,0.01,,,0.63,,2013-05-28 18:22:00,
2013-05-28 14:32:00,54.0,53.0,30.06,South,171,2.0,5.0,97,0.00,,,0.63,,2013-05-28 18:32:00,
2013-05-28 14:42:00,54.0,53.0,30.06,South,171,2.0,5.0,97,0.00,,,0.63,,2013-05-28 18:42:00,
2013-05-28 14:52:00,54.0,53.0,30.05,SSW,193,2.0,5.0,97,0.00,,,0.63,,2013-05-28 18:52:00,
2013-05-28 15:01:00,54.0,53.0,30.05,SSW,205,2.0,6.0,97,0.00,,,0.63,,2013-05-28 19:01:00,
2013-05-28 15:11:00,54.0,53.0,30.05,SSW,205,2.0,6.0,97,0.00,,,0.63,,2013-05-28 19:11:00,
2013-05-28 15:21:00,55.0,54.0,30.06,SSW,193,2.0,5.0,97,0.00,,,0.63,,2013-05-28 19:21:00,
2013-05-28 15:32:00,55.0,54.0,30.06,SSE,167,3.0,5.0,97,0.00,,,0.63,,2013-05-28 19:32:00,
2013-05-28 15:42:00,55.0,54.0,30.06,SSE,167,3.0,5.0,97,0.00,,,0.63,,2013-05-28 19:42:00,
2013-05-28 15:52:00,55.0,54.0,30.06,South,174,2.0,6.0,97,0.01,,,0.64,,2013-05-28 19:52:00,
2013-05-28 16:02:00,55.0,54.0,30.05,SSE,148,4.0,6.0,98,0.03,,,0.66,,2013-05-28 20:02:00,
2013-05-28 16:11:00,55.0,54.0,30.05,SSE,148,4.0,6.0,98,0.03,,,0.66,,2013-05-28 20:11:00,
2013-05-28 16:22:00,55.0,54.0,30.06,South,177,3.0,6.0,98,0.03,,,0.66,,2013-05-28 20:22:00,
2013-05-28 16:32:00,56.0,55.0,30.06,SSE,152,1.0,5.0,98,0.03,,,0.66,,2013-05-28 20:32:00,
2013-05-28 16:42:00,56.0,55.0,30.06,SSE,152,1.0,5.0,98,0.03,,,0.66,,2013-05-28 20:42:00,
2013-05-28 16:52:00,56.0,55.0,30.06,South,181,2.0,5.0,98,0.01,,,0.66,,2013-05-28 20:52:00,
2013-05-28 17:02:00,56.0,55.0,30.05,South,184,2.0,4.0,98,0.00,,,0.66,,2013-05-28 21:02:00,
2013-05-28 17:11:00,56.0,55.0,30.05,South,184,2.0,4.0,98,0.00,,,0.66,,2013-05-28 21:11:00,
2013-05-28 17:22:00,57.0,56.0,30.05,South,169,2.0,4.0,98,0.00,,,0.66,,2013-05-28 21:22:00,
2013-05-28 17:33:00,57.0,56.0,30.05,SSE,163,1.0,4.0,98,0.00,,,0.66,,2013-05-28 21:33:00,
2013-05-28 17:43:00,57.0,56.0,30.05,SSE,163,1.0,4.0,98,0.00,,,0.66,,2013-05-28 21:43:00,
2013-05-28 17:53:00,57.0,56.0,30.05,South,172,1.0,4.0,98,0.00,,,0.66,,2013-05-28 21:53:00,
2013-05-28 18:02:00,57.0,56.0,30.05,SSE,164,2.0,4.0,98,0.00,,,0.66,,2013-05-28 22:02:00,
2013-05-28 18:13:00,57.0,56.0,30.05,SSE,164,2.0,4.0,98,0.00,,,0.66,,2013-05-28 22:13:00,
2013-05-28 18:22:00,57.0,56.0,30.05,South,170,1.0,5.0,98,0.00,,,0.66,,2013-05-28 22:22:00,
2013-05-28 18:33:00,57.0,56.0,30.04,SSE,156,3.0,6.0,98,0.00,,,0.66,,2013-05-28 22:33:00,
2013-05-28 18:42:00,57.0,56.0,30.04,SE,142,2.0,5.0,98,0.00,,,0.66,,2013-05-28 22:42:00,
2013-05-28 18:52:00,57.0,56.0,30.04,SE,142,2.0,5.0,98,0.00,,,0.66,,2013-05-28 22:52:00,
2013-05-28 19:02:00,58.0,57.0,30.03,South,179,4.0,7.0,98,0.00,,,0.66,,2013-05-28 23:02:00,
2013-05-28 19:11:00,58.0,57.0,30.03,South,179,4.0,7.0,98,0.00,,,0.66,,2013-05-28 23:11:00,
2013-05-28 19:22:00,58.0,57.0,30.03,South,187,1.0,5.0,98,0.00,,,0.66,,2013-05-28 23:22:00,
2013-05-28 19:32:00,58.0,57.0,30.03,SSE,160,3.0,5.0,98,0.00,,,0.66,,2013-05-28 23:32:00,
2013-05-28 19:42:00,58.0,57.0,30.03,SSE,160,3.0,5.0,98,0.00,,,0.66,,2013-05-28 23:42:00,
2013-05-28 19:52:00,57.0,56.0,30.03,SE,143,1.0,7.0,98,0.00,,,0.66,,2013-05-28 23:52:00,
2013-05-28 20:02:00,57.0,56.0,30.02,SE,139,3.0,6.0,98,0.00,,,0.66,,2013-05-29 00:02:00,
2013-05-28 20:11:00,57.0,56.0,30.02,SE,139,3.0,6.0,98,0.00,,,0.66,,2013-05-29 00:11:00,
2013-05-28 20:22:00,57.0,56.0,30.02,SSE,167,3.0,7.0,98,0.00,,,0.66,,2013-05-29 00:22:00,
2013-05-28 20:32:00,57.0,57.0,30.03,South,169,3.0,9.0,99,0.00,,,0.66,,2013-05-29 00:32:00,
2013-05-28 20:42:00,57.0,57.0,30.03,South,169,3.0,9.0,99,0.00,,,0.66,,2013-05-29 00:42:00,
2013-05-28 20:52:00,57.0,56.0,30.03,South,184,3.0,7.0,98,0.00,,,0.66,,2013-05-29 00:52:00,
2013-05-28 21:01:00,56.0,55.0,30.03,South,189,3.0,7.0,98,0.00,,,0.66,,2013-05-29 01:01:00,
2013-05-28 21:11:00,56.0,55.0,30.03,South,189,3.0,7.0,98,0.00,,,0.66,,2013-05-29 01:11:00,
2013-05-28 21:22:00,56.0,56.0,30.03,South,169,2.0,8.0,99,0.00,,,0.66,,2013-05-29 01:22:00,
2013-05-28 21:32:00,56.0,56.0,30.04,South,171,2.0,6.0,99,0.00,,,0.66,,2013-05-29 01:32:00,
2013-05-28 21:42:00,56.0,56.0,30.04,South,171,2.0,6.0,99,0.00,,,0.66,,2013-05-29 01:42:00,
2013-05-28 21:52:00,56.0,56.0,30.04,SSE,165,4.0,9.0,99,0.00,,,0.66,,2013-05-29 01:52:00,
2013-05-28 22:02:00,56.0,56.0,30.04,South,184,4.0,7.0,99,0.00,,,0.66,,2013-05-29 02:02:00,
2013-05-28 22:12:00,56.0,56.0,30.04,South,184,4.0,7.0,99,0.00,,,0.66,,2013-05-29 02:12:00,
2013-05-28 22:21:00,56.0,56.0,30.03,SSE,160,3.0,8.0,99,0.00,,,0.66,,2013-05-29 02:21:00,
2013-05-28 22:32:00,56.0,56.0,30.04,SSE,167,3.0,9.0,99,0.00,,,0.66,,2013-05-29 02:32:00,
2013-05-28 22:42:00,56.0,56.0,30.05,South,176,5.0,9.0,99,0.00,,,0.66,,2013-05-29 02:42:00,
2013-05-28 22:52:00,56.0,56.0,30.05,South,176,5.0,9.0,99,0.00,,,0.66,,2013-05-29 02:52:00,
2013-05-28 23:02:00,57.0,57.0,30.05,SSE,168,3.0,7.0,99,0.01,,,0.67,,2013-05-29 03:02:00,
2013-05-28 23:12:00,57.0,57.0,30.05,SSE,168,3.0,7.0,99,0.01,,,0.67,,2013-05-29 03:12:00,
2013-05-28 23:22:00,57.0,57.0,30.05,South,173,2.0,3.0,99,0.01,,,0.67,,2013-05-29 03:22:00,
2013-05-28 23:33:00,57.0,57.0,30.05,South,179,2.0,4.0,99,0.02,,,0.68,,2013-05-29 03:33:00,
2013-05-28 23:43:00,57.0,57.0,30.05,South,179,2.0,4.0,99,0.02,,,0.68,,2013-05-29 03:43:00,
2013-05-28 23:53:00,57.0,57.0,30.04,South,176,2.0,5.0,99,0.03,,,0.69,,2013-05-29 03:53:00,